Location: Anuling
(14.1239°N, 120.8922°E)
Time: 06:15:17
(UTC+00:00)

Cosmos 2228 Rocket - Pass Details

Date: 14 January 2026
Orbit: 611 x 647 km, 82.5° (Epoch: 7 February)

Event Time Altitude Azimuth Distance (km) Brightness Sun altitude
Rises 11:19:39 0° 187° (S) 2,947 6.9 -22.1°
Reaches altitude 10° 11:21:54 10° 188° (S) 2,036 6.0 -22.6°
Maximum altitude 11:26:26 77° 274° (W) 660 3.2 -23.6°
Enters shadow 11:27:52 43° 352° (N) 902 3.7 -24.0°
